User: anonymous   Login
Location: Prairie State College
(41.5244°N, 87.6382°W)
Time: 18:37:52
(UTC-06:00)
Language:

MSX - Orbit

View from above orbital plane
View from above orbital plane
View from above satellite
View from above satellite

Ground track
Ground track

The orbit data is extracted from the following two-line orbital elements,

1 23851U 96024A   17045.22851230 0.00000000  00000-0  00000-0 0    03
2 23851  98.6738  57.7252 0008504 313.6324  46.3674 13.98047084    03
Epoch (UTC): 14 February 2017 05:29:03
Eccentricity: 0.0008504
inclination: 98.6738°
perigee height: 894 km
apogee height: 907 km
right ascension of ascending node: 57.7252°
argument of perigee: 313.6324°
revolutions per day: 13.98047084
mean anomaly at epoch: 46.3674°
orbit number at epoch: 0

The dashed part of the orbit path shows where the satellite is in the earth's shadow,  

DLR